sat.trackr.live / text

‹ back to catalog

EUTELSAT 70B

NORAD 39020 · 2012-069A

PAYLOAD ACTIVE UNKNOWN

§ Identity

Operator
Country
EUTE
Launch date
2012-12-03
Launch site
SEAL
Launch vehicle
Mass (kg)
RCS (m²)
22.59

Purposes: comms

External: N2YO · Heavens-Above · Gunter

§ Orbital elements

Epoch: 2026-09-04T02:39:42.113376Z

Period
1,436.10 min
Inclination
0.0650°
Eccentricity
0.0003693
Mean motion
1.00271534 rev/d
Perigee alt
35,771.1 km
Apogee alt
35,802.2 km
Semi-major
42,164.8 km
B*
0.0000e+0
RAAN
343.0360°
Arg perigee
178.8279°
Mean anomaly
291.7930°
Rev number
5,030

§ Raw data

EUTELSAT 70B1 39020U 12069A   26247.11090409 -.00000048  00000+0  00000+0 0  99982 39020   0.0650 343.0360 0003693 178.8279 291.7930  1.00271534 50301

JSON: /api/v1/satellites/39020 · /tle

For live sub-satellite position, see the globe view (requires WebGL).

§ Visibility from observer

Set your observer location to see the next 7 days of passes ≥ 10°. The values pass through the URL so the page stays shareable.

No JS? Fill the form by hand. The geolocation button needs JavaScript.